Home > Time Zones > World Clock > Weather > Qatar > Doha > Past weeks

Flag for Qatar Weather past 2 weeks in Doha, Qatar

Now
97 °F

Clear.


Feels Like: 122 °F
Forecast: 89 / 110 °F
Wind: 10 mph from East

Location: Doha International Airport

Current Time: Jul 4, 2015 at 4:02:55 PM

Latest Report: Jul 4, 2015 at 3:00 PM


Visibility: 5 mi

Pressure: 29.53 "Hg

Humidity: 63%

Dew point: 82 °F

Location of DohaLocation

Historic Weather in Doha — Graph

°F

Doha temperature yesterday

Maximum temperature yesterday: 102 °F (at 11:00 AM)
Minimum temperature yesterday: 86 °F (at 5:00 AM)
Average temperature yesterday: 94 °F

Past Weeks' High & Low Weather Summary

 TemperatureHumidityPressure
High109 °F (Jun 19, 5:00 PM)84% (Jul 4, 4:00 AM)29.65 "Hg (Jul 4, 4:00 AM)
Low81 °F (Jun 26, 7:00 PM)7% (Jun 25, 3:00 PM)29.42 "Hg (Jun 20, 4:00 PM)
Average98 °F29%29.53 "Hg
* Reported Jun 19 5:00 PM — Jul 4 3:00 PM, Doha, Weather by CustomWeather, © 2015

Note: Actual official high and low records may vary slightly from our data, if they occured in-between our weather recording intervals... More about our weather records

Advertising

Doha weather history for previous 24 hours

 ConditionsComfort  
Time TempWeatherWind HumidityBarometerVisibility
3:00 PM
Sat, Jul 4
97 °FClear.10 mph63%29.53 "Hg5 mi
2:00 PM99 °FClear.10 mph60%29.53 "Hg6 mi
1:00 PM100 °FClear.9 mph57%29.53 "Hg6 mi
12:00 PM100 °FClear.9 mph60%29.53 "Hg5 mi
11:00 AM102 °FClear.6 mph54%29.56 "Hg5 mi
10:00 AM100 °FClear.5 mph57%29.56 "Hg6 mi
9:00 AM95 °FClear.2 mph63%29.56 "Hg5 mi
8:00 AM93 °FClear.5 mph71%29.59 "Hg4 mi
7:00 AM91 °FClear.5 mph75%29.56 "Hg4 mi
6:00 AM88 °FHaze.2 mph79%29.56 "Hg3 mi
5:00 AM88 °FClear.3 mph84%29.53 "Hg4 mi
4:00 AM88 °FClear.5 mph84%29.53 "Hg4 mi
3:00 AM90 °FClear.3 mph75%29.50 "Hg5 mi
2:00 AM88 °FClear.3 mph79%29.53 "Hg5 mi
1:00 AM90 °FClear.No wind79%29.53 "Hg5 mi
12:00 AM90 °FClear.5 mph75%29.53 "Hg5 mi
11:00 PM
Fri, Jul 3
90 °FClear.3 mph75%29.56 "Hg5 mi
10:00 PM91 °FClear.6 mph71%29.56 "Hg10 mi
9:00 PM91 °FClear.2 mph67%29.56 "Hg10 mi
8:00 PM93 °FClear.3 mph59%29.53 "Hg10 mi
7:00 PM95 °FClear.3 mph50%29.53 "Hg10 mi
6:00 PM95 °FClear.7 mph44%29.53 "Hg6 mi
5:00 PM99 °FClear.9 mph37%29.50 "Hg6 mi
4:00 PM99 °FClear.9 mph44%29.53 "Hg6 mi
Weather by CustomWeather, © 2015

See weather overviewHow to use our weather pages